| time (UTC) | temp C | wind direction | speed KPH | gust KPH | rain 1hr cm | rain 24hr cm | rain mn cm | humidity % | barometer mb |
| 20260902125402 | 31 | 45 | 6.4 | 8.0 | 0.00 | 0.00 | 0.00 | 76 | 1004.3 |
| 20260902125305 | 31 | 48 | 6.4 | 8.0 | 0.00 | 0.00 | 0.00 | 76 | 1004.2 |
| 20260902125200 | 31 | 54 | 4.8 | 8.0 | 0.00 | 0.00 | 0.00 | 76 | 1004.2 |
| 20260902125103 | 31 | 59 | 4.8 | 6.4 | 0.00 | 0.00 | 0.00 | 76 | 1004.3 |
| 20260902125008 | 32 | 78 | 4.8 | 6.4 | 0.00 | 0.00 | 0.00 | 75 | 1004.3 |
| 20260902124905 | 32 | 52 | 4.8 | 6.4 | 0.00 | 0.00 | 0.00 | 75 | 1004.3 |
| 20260902124700 | 32 | 65 | 3.2 | 6.4 | 0.00 | 0.00 | 0.00 | 75 | 1004.3 |
| 20260902124603 | 32 | 73 | 4.8 | 6.4 | 0.00 | 0.00 | 0.00 | 75 | 1004.4 |
| 20260902124504 | 32 | 40 | 3.2 | 6.4 | 0.00 | 0.00 | 0.00 | 75 | 1004.3 |
| 20260902124404 | 32 | 55 | 3.2 | 6.4 | 0.00 | 0.00 | 0.00 | 75 | 1004.3 |
| 20260902124059 | 32 | 14 | 3.2 | 6.4 | 0.00 | 0.00 | 0.00 | 76 | 1004.4 |
| 20260902124005 | 32 | 20 | 1.6 | 6.4 | 0.00 | 0.00 | 0.00 | 76 | 1004.3 |
| 20260902123907 | 32 | 15 | 0.0 | 6.4 | 0.00 | 0.00 | 0.00 | 76 | 1004.3 |
| 20260902123803 | 32 | 30 | 0.0 | 6.4 | 0.00 | 0.00 | 0.00 | 76 | 1004.4 |
| 20260902123603 | 31 | 355 | 1.6 | 6.4 | 0.00 | 0.00 | 0.00 | 76 | 1004.3 |
| 20260902123508 | 31 | 55 | 1.6 | 6.4 | 0.00 | 0.00 | 0.00 | 76 | 1004.4 |
| 20260902123359 | 31 | 360 | 3.2 | 6.4 | 0.00 | 0.00 | 0.00 | 76 | 1004.4 |
| 20260902123300 | 31 | 41 | 3.2 | 6.4 | 0.00 | 0.00 | 0.00 | 75 | 1004.4 |
| 20260902123200 | 31 | 61 | 3.2 | 8.0 | 0.00 | 0.00 | 0.00 | 75 | 1004.4 |
| 20260902123101 | 32 | 71 | 4.8 | 8.0 | 0.00 | 0.00 | 0.00 | 76 | 1004.4 |
| 20260902123005 | 32 | 47 | 4.8 | 8.0 | 0.00 | 0.00 | 0.00 | 76 | 1004.4 |
| 20260902122702 | 32 | 53 | 4.8 | 8.0 | 0.00 | 0.00 | 0.00 | 75 | 1004.4 |
| 20260902122605 | 32 | 60 | 3.2 | 8.0 | 0.00 | 0.00 | 0.00 | 75 | 1004.3 |
| 20260902122505 | 32 | 36 | 4.8 | 8.0 | 0.00 | 0.00 | 0.00 | 75 | 1004.4 |
| 20260902122400 | 32 | 55 | 3.2 | 8.0 | 0.00 | 0.00 | 0.00 | 76 | 1004.4 |
| 20260902122305 | 32 | 59 | 3.2 | 6.4 | 0.00 | 0.00 | 0.00 | 76 | 1004.5 |
| 20260902122103 | 32 | 34 | 1.6 | 6.4 | 0.00 | 0.00 | 0.00 | 76 | 1004.4 |
| 20260902122007 | 32 | 350 | 1.6 | 6.4 | 0.00 | 0.00 | 0.00 | 76 | 1004.4 |
| 20260902121900 | 32 | 78 | 3.2 | 6.4 | 0.00 | 0.00 | 0.00 | 75 | 1004.4 |
| 20260902121800 | 32 | 32 | 4.8 | 6.4 | 0.00 | 0.00 | 0.00 | 75 | 1004.3 |
| 20260902121605 | 32 | 33 | 3.2 | 6.4 | 0.00 | 0.00 | 0.00 | 75 | 1004.2 |
| 20260902121305 | 32 | 52 | 4.8 | 6.4 | 0.00 | 0.00 | 0.00 | 75 | 1004.2 |
| 20260902121204 | 32 | 5 | 3.2 | 6.4 | 0.00 | 0.00 | 0.00 | 76 | 1004.2 |
| 20260902121004 | 32 | 11 | 3.2 | 4.8 | 0.00 | 0.00 | 0.00 | 75 | 1004.2 |
| 20260902120903 | 32 | 344 | 3.2 | 4.8 | 0.00 | 0.00 | 0.00 | 75 | 1004.3 |
| 20260902120803 | 32 | 344 | 3.2 | 8.0 | 0.00 | 0.00 | 0.00 | 75 | 1004.4 |
| 20260902120703 | 32 | 344 | 3.2 | 8.0 | 0.00 | 0.00 | 0.00 | 75 | 1004.4 |
| 20260902120602 | 32 | 344 | 3.2 | 8.0 | 0.00 | 0.00 | 0.00 | 75 | 1004.4 |
| 20260902120505 | 32 | 344 | 3.2 | 8.0 | 0.00 | 0.00 | 0.00 | 75 | 1004.4 |
| 20260902120403 | 32 | 344 | 3.2 | 8.0 | 0.00 | 0.00 | 0.00 | 74 | 1004.4 |
| 20260902120303 | 32 | 344 | 3.2 | 8.0 | 0.00 | 0.00 | 0.00 | 75 | 1004.4 |
| 20260902120203 | 32 | 344 | 3.2 | 8.0 | 0.00 | 0.00 | 0.00 | 74 | 1004.4 |
| 20260902120105 | 32 | 344 | 3.2 | 8.0 | 0.00 | 0.00 | 0.00 | 74 | 1004.3 |
| 20260902120004 | 32 | 344 | 3.2 | 8.0 | 0.00 | 0.00 | 0.00 | 74 | 1004.3 |
| 20260902115802 | 32 | 276 | 1.6 | 4.8 | 0.00 | 0.00 | 0.00 | 74 | 1004.3 |
| 20260902115703 | 32 | 335 | 3.2 | 4.8 | 0.00 | 0.00 | 0.00 | 74 | 1004.2 |
| 20260902115600 | 32 | 335 | 3.2 | 4.8 | 0.00 | 0.00 | 0.00 | 74 | 1004.3 |
| 20260902115505 | 32 | 324 | 3.2 | 6.4 | 0.00 | 0.00 | 0.00 | 74 | 1004.3 |
| 20260902115405 | 32 | 321 | 3.2 | 6.4 | 0.00 | 0.00 | 0.00 | 74 | 1004.3 |
| 20260902115306 | 32 | 345 | 3.2 | 6.4 | 0.00 | 0.00 | 0.00 | 73 | 1004.3 |
| 20260902115100 | 32 | 346 | 3.2 | 6.4 | 0.00 | 0.00 | 0.00 | 74 | 1004.3 |
| 20260902115005 | 32 | 341 | 3.2 | 6.4 | 0.00 | 0.00 | 0.00 | 74 | 1004.2 |
| 20260902114859 | 32 | 341 | 3.2 | 6.4 | 0.00 | 0.00 | 0.00 | 73 | 1004.3 |
| 20260902114804 | 32 | 17 | 3.2 | 6.4 | 0.00 | 0.00 | 0.00 | 73 | 1004.2 |
| 20260902114659 | 33 | 17 | 1.6 | 6.4 | 0.00 | 0.00 | 0.00 | 73 | 1004.2 |
| 20260902114559 | 33 | 47 | 1.6 | 6.4 | 0.00 | 0.00 | 0.00 | 73 | 1004.2 |
| 20260902114508 | 33 | 71 | 1.6 | 6.4 | 0.00 | 0.00 | 0.00 | 73 | 1004.2 |
| 20260902114403 | 33 | 333 | 1.6 | 6.4 | 0.00 | 0.00 | 0.00 | 73 | 1004.3 |
| 20260902114304 | 33 | 333 | 1.6 | 6.4 | 0.00 | 0.00 | 0.00 | 73 | 1004.3 |
| 20260902114103 | 32 | 300 | 3.2 | 6.4 | 0.00 | 0.00 | 0.00 | 73 | 1004.4 |
| 20260902114007 | 32 | 301 | 4.8 | 6.4 | 0.00 | 0.00 | 0.00 | 73 | 1004.5 |
| 20260902113759 | 33 | 320 | 1.6 | 4.8 | 0.00 | 0.00 | 0.00 | 72 | 1004.5 |
| 20260902113658 | 33 | 355 | 1.6 | 4.8 | 0.00 | 0.00 | 0.00 | 72 | 1004.4 |
| 20260902113602 | 33 | 294 | 1.6 | 4.8 | 0.00 | 0.00 | 0.00 | 72 | 1004.3 |
| 20260902113508 | 33 | 294 | 1.6 | 4.8 | 0.00 | 0.00 | 0.00 | 73 | 1004.3 |
| 20260902113405 | 33 | 307 | 0.0 | 4.8 | 0.00 | 0.00 | 0.00 | 73 | 1004.4 |
| 20260902113305 | 33 | 330 | 0.0 | 4.8 | 0.00 | 0.00 | 0.00 | 73 | 1004.5 |
| 20260902112901 | 32 | 326 | 3.2 | 4.8 | 0.00 | 0.00 | 0.00 | 73 | 1004.5 |
| 20260902112802 | 32 | 326 | 3.2 | 4.8 | 0.00 | 0.00 | 0.00 | 73 | 1004.6 |
| 20260902112701 | 32 | 350 | 1.6 | 4.8 | 0.00 | 0.00 | 0.00 | 73 | 1004.5 |
| 20260902112605 | 32 | 348 | 3.2 | 4.8 | 0.00 | 0.00 | 0.00 | 73 | 1004.5 |
| 20260902112502 | 32 | 340 | 3.2 | 4.8 | 0.00 | 0.00 | 0.00 | 73 | 1004.5 |
| 20260902112403 | 32 | 333 | 1.6 | 4.8 | 0.00 | 0.00 | 0.00 | 73 | 1004.5 |
| 20260902112306 | 32 | 333 | 0.0 | 4.8 | 0.00 | 0.00 | 0.00 | 73 | 1004.5 |
| 20260902112159 | 32 | 333 | 1.6 | 4.8 | 0.00 | 0.00 | 0.00 | 73 | 1004.5 |
| 20260902112103 | 33 | 333 | 1.6 | 4.8 | 0.00 | 0.00 | 0.00 | 73 | 1004.6 |
| 20260902112006 | 33 | 333 | 3.2 | 4.8 | 0.00 | 0.00 | 0.00 | 73 | 1004.6 |
| 20260902111859 | 33 | 333 | 3.2 | 4.8 | 0.00 | 0.00 | 0.00 | 73 | 1004.6 |
| 20260902111700 | 33 | 342 | 3.2 | 4.8 | 0.00 | 0.00 | 0.00 | 73 | 1004.6 |
| 20260902111606 | 33 | 342 | 3.2 | 4.8 | 0.00 | 0.00 | 0.00 | 73 | 1004.6 |
| 20260902111507 | 33 | 325 | 3.2 | 6.4 | 0.00 | 0.00 | 0.00 | 73 | 1004.7 |
| 20260902111400 | 33 | 303 | 3.2 | 6.4 | 0.00 | 0.00 | 0.00 | 73 | 1004.6 |
| 20260902111207 | 33 | 317 | 3.2 | 6.4 | 0.00 | 0.00 | 0.00 | 73 | 1004.7 |
| 20260902111059 | 33 | 342 | 3.2 | 6.4 | 0.00 | 0.00 | 0.00 | 73 | 1004.7 |
| 20260902110900 | 33 | 313 | 3.2 | 6.4 | 0.00 | 0.00 | 0.00 | 73 | 1004.8 |
| 20260902110802 | 33 | 326 | 3.2 | 6.4 | 0.00 | 0.00 | 0.00 | 73 | 1004.8 |
| 20260902110703 | 33 | 300 | 3.2 | 6.4 | 0.00 | 0.00 | 0.00 | 72 | 1004.7 |
| 20260902110603 | 33 | 307 | 3.2 | 6.4 | 0.00 | 0.00 | 0.00 | 72 | 1004.8 |
| 20260902110508 | 33 | 302 | 1.6 | 4.8 | 0.00 | 0.00 | 0.00 | 72 | 1004.8 |
| 20260902110402 | 33 | 339 | 1.6 | 6.4 | 0.00 | 0.00 | 0.00 | 72 | 1004.8 |
| 20260902110302 | 33 | 66 | 0.0 | 6.4 | 0.00 | 0.00 | 0.00 | 72 | 1004.8 |
| 20260902110201 | 33 | 66 | 1.6 | 6.4 | 0.00 | 0.00 | 0.00 | 72 | 1004.7 |
| 20260902110104 | 33 | 66 | 1.6 | 6.4 | 0.00 | 0.00 | 0.00 | 72 | 1004.7 |
| 20260902110006 | 33 | 331 | 1.6 | 6.4 | 0.00 | 0.00 | 0.00 | 72 | 1004.7 |
| 20260902105802 | 33 | 331 | 3.2 | 6.4 | 0.00 | 0.00 | 0.00 | 72 | 1004.7 |
| 20260902105700 | 33 | 331 | 3.2 | 8.0 | 0.00 | 0.00 | 0.00 | 72 | 1004.7 |
| 20260902105506 | 33 | 283 | 3.2 | 8.0 | 0.00 | 0.00 | 0.00 | 72 | 1004.7 |
| 20260902105259 | 33 | 296 | 4.8 | 8.0 | 0.00 | 0.00 | 0.00 | 72 | 1004.8 |
| 20260902105200 | 33 | 292 | 4.8 | 8.0 | 0.00 | 0.00 | 0.00 | 72 | 1004.7 |
| 20260902105103 | 33 | 345 | 4.8 | 8.0 | 0.00 | 0.00 | 0.00 | 72 | 1004.8 |
| 20260902105006 | 33 | 298 | 4.8 | 8.0 | 0.00 | 0.00 | 0.00 | 71 | 1004.8 |
| 20260902104927 | 33 | 298 | 4.8 | 8.0 | 0.00 | 0.00 | 0.00 | 71 | 1004.8 |
| 20260902013103 | 26 | 78 | 6.4 | 14.5 | 0.00 | 0.00 | 0.00 | 90 | 1007.3 |
| 20260902013002 | 26 | 94 | 6.4 | 14.5 | 0.00 | 0.00 | 0.00 | 90 | 1007.3 |
| 20260902012902 | 26 | 77 | 6.4 | 14.5 | 0.00 | 0.00 | 0.00 | 90 | 1007.2 |
| 20260902012704 | 27 | 65 | 4.8 | 9.7 | 0.00 | 0.00 | 0.00 | 90 | 1007.2 |
| 20260902012359 | 27 | 82 | 4.8 | 12.9 | 0.00 | 0.00 | 0.00 | 91 | 1007.1 |
| 20260902012258 | 27 | 129 | 4.8 | 12.9 | 0.00 | 0.00 | 0.00 | 91 | 1007.1 |
| 20260902012203 | 27 | 93 | 4.8 | 12.9 | 0.00 | 0.00 | 0.00 | 91 | 1007.0 |
| 20260902012103 | 27 | 83 | 4.8 | 12.9 | 0.00 | 0.00 | 0.00 | 91 | 1007.1 |
| 20260902012002 | 27 | 101 | 4.8 | 12.9 | 0.00 | 0.00 | 0.00 | 91 | 1007.1 |
| 20260902011902 | 27 | 90 | 6.4 | 12.9 | 0.00 | 0.00 | 0.00 | 91 | 1007.0 |
| 20260902011803 | 27 | 83 | 8.0 | 12.9 | 0.00 | 0.00 | 0.00 | 91 | 1007.1 |
| 20260902011704 | 27 | 92 | 6.4 | 16.1 | 0.00 | 0.00 | 0.00 | 91 | 1007.0 |
| 20260902011559 | 27 | 65 | 3.2 | 16.1 | 0.00 | 0.00 | 0.00 | 91 | 1007.0 |
| 20260902011504 | 27 | 92 | 4.8 | 16.1 | 0.00 | 0.00 | 0.00 | 91 | 1007.0 |
| 20260902011358 | 27 | 41 | 6.4 | 16.1 | 0.00 | 0.00 | 0.00 | 91 | 1007.0 |
| 20260902011303 | 27 | 109 | 4.8 | 16.1 | 0.00 | 0.00 | 0.00 | 91 | 1007.1 |
| 20260902011202 | 26 | 84 | 3.2 | 16.1 | 0.00 | 0.00 | 0.00 | 91 | 1007.0 |
| 20260902011102 | 27 | 94 | 4.8 | 16.1 | 0.00 | 0.00 | 0.00 | 91 | 1007.1 |
| 20260902010859 | 26 | 165 | 11.3 | 16.1 | 0.00 | 0.00 | 0.00 | 91 | 1007.1 |
| 20260902010759 | 26 | 112 | 9.7 | 14.5 | 0.00 | 0.00 | 0.00 | 91 | 1007.0 |
| 20260902010659 | 26 | 113 | 8.0 | 14.5 | 0.00 | 0.00 | 0.00 | 91 | 1007.0 |
| 20260902010559 | 26 | 106 | 9.7 | 14.5 | 0.00 | 0.00 | 0.00 | 91 | 1007.0 |
| 20260902010507 | 26 | 117 | 8.0 | 14.5 | 0.00 | 0.00 | 0.00 | 91 | 1007.0 |
| 20260902010358 | 26 | 112 | 8.0 | 14.5 | 0.00 | 0.00 | 0.00 | 91 | 1006.9 |
| 20260902010302 | 26 | 127 | 8.0 | 16.1 | 0.00 | 0.00 | 0.00 | 91 | 1006.9 |
| 20260902010205 | 26 | 123 | 8.0 | 16.1 | 0.00 | 0.00 | 0.00 | 91 | 1006.9 |
| 20260902010007 | 26 | 142 | 9.7 | 16.1 | 0.00 | 0.00 | 0.00 | 91 | 1006.9 |
| 20260902005904 | 26 | 103 | 11.3 | 16.1 | 0.00 | 0.00 | 0.00 | 91 | 1006.9 |
| 20260902005759 | 26 | 111 | 12.9 | 16.1 | 0.00 | 0.00 | 0.00 | 91 | 1006.9 |
| 20260902005704 | 26 | 94 | 12.9 | 16.1 | 0.00 | 0.00 | 0.00 | 91 | 1006.9 |
| 20260902005608 | 26 | 94 | 12.9 | 16.1 | 0.00 | 0.00 | 0.00 | 91 | 1006.9 |
| 20260902001859 | 27 | 65 | 8.0 | 14.5 | 0.00 | 0.00 | 0.00 | 90 | 1006.8 |
| 20260902001803 | 27 | 103 | 8.0 | 14.5 | 0.00 | 0.00 | 0.00 | 90 | 1006.8 |
| 20260902001701 | 27 | 77 | 8.0 | 14.5 | 0.00 | 0.00 | 0.00 | 90 | 1006.8 |
| 20260902001603 | 27 | 82 | 6.4 | 17.7 | 0.00 | 0.00 | 0.00 | 90 | 1006.8 |
| 20260902001506 | 27 | 88 | 8.0 | 17.7 | 0.00 | 0.00 | 0.00 | 90 | 1006.7 |
| 20260902001305 | 27 | 84 | 6.4 | 17.7 | 0.00 | 0.00 | 0.00 | 90 | 1006.7 |
| 20260902001202 | 27 | 126 | 6.4 | 17.7 | 0.00 | 0.00 | 0.00 | 90 | 1006.6 |
| 20260902001105 | 27 | 126 | 8.0 | 17.7 | 0.00 | 0.00 | 0.00 | 90 | 1006.7 |
| 20260902001006 | 27 | 141 | 8.0 | 17.7 | 0.00 | 0.00 | 0.00 | 90 | 1006.6 |
| 20260902000903 | 27 | 19 | 9.7 | 17.7 | 0.00 | 0.00 | 0.00 | 90 | 1006.6 |
| 20260902000805 | 27 | 105 | 8.0 | 17.7 | 0.00 | 0.00 | 0.00 | 90 | 1006.7 |
| 20260902000606 | 27 | 100 | 6.4 | 14.5 | 0.00 | 0.00 | 0.00 | 90 | 1006.6 |
| 20260902000407 | 27 | 71 | 8.0 | 14.5 | 0.00 | 0.00 | 0.00 | 90 | 1006.6 |
| 20260902000204 | 27 | 67 | 4.8 | 12.9 | 0.00 | 0.00 | 0.00 | 90 | 1006.7 |
| 20260902000101 | 27 | 90 | 4.8 | 12.9 | 0.00 | 0.00 | 0.00 | 90 | 1006.6 |
| 20260902000003 | 27 | 58 | 6.4 | 12.9 | 0.00 | 0.00 | 0.00 | 90 | 1006.7 |
| 20260901235858 | 27 | 162 | 6.4 | 12.9 | 0.00 | 0.00 | 0.00 | 90 | 1006.7 |
| 20260901235758 | 27 | 71 | 8.0 | 12.9 | 0.00 | 0.00 | 0.00 | 91 | 1006.6 |
| 20260901235702 | 27 | 68 | 6.4 | 12.9 | 0.00 | 0.00 | 0.00 | 91 | 1006.7 |
| 20260901235559 | 27 | 115 | 6.4 | 12.9 | 0.00 | 0.00 | 0.00 | 91 | 1006.6 |
| 20260901235502 | 27 | 35 | 6.4 | 12.9 | 0.00 | 0.00 | 0.00 | 91 | 1006.6 |
| 20260901235358 | 27 | 98 | 4.8 | 9.7 | 0.00 | 0.00 | 0.00 | 91 | 1006.5 |
| 20260901235203 | 27 | 57 | 6.4 | 12.9 | 0.00 | 0.00 | 0.00 | 90 | 1006.3 |
| 20260901235103 | 27 | 64 | 6.4 | 12.9 | 0.00 | 0.00 | 0.00 | 90 | 1006.3 |
| 20260901235020 | 27 | 101 | 6.4 | 14.5 | 0.00 | 0.00 | 0.00 | 90 | 1006.3 |
| 20260901234900 | 27 | 96 | 6.4 | 14.5 | 0.00 | 0.00 | 0.00 | 90 | 1006.2 |
| 20260901234805 | 27 | 100 | 4.8 | 14.5 | 0.00 | 0.00 | 0.00 | 90 | 1006.2 |
| 20260901234703 | 27 | 134 | 6.4 | 14.5 | 0.00 | 0.00 | 0.00 | 90 | 1006.2 |
| 20260901234507 | 27 | 124 | 6.4 | 14.5 | 0.00 | 0.00 | 0.00 | 90 | 1006.2 |
| 20260901234301 | 27 | 106 | 8.0 | 14.5 | 0.00 | 0.00 | 0.00 | 90 | 1006.3 |
| 20260901234158 | 27 | 46 | 6.4 | 14.5 | 0.00 | 0.00 | 0.00 | 90 | 1006.1 |
| 20260901234100 | 27 | 52 | 4.8 | 12.9 | 0.00 | 0.00 | 0.00 | 90 | 1006.2 |
| 20260901234008 | 27 | 46 | 4.8 | 12.9 | 0.00 | 0.00 | 0.00 | 90 | 1006.2 |
| 20260901233903 | 27 | 105 | 6.4 | 12.9 | 0.00 | 0.00 | 0.00 | 90 | 1006.2 |
| 20260901233802 | 27 | 72 | 6.4 | 12.9 | 0.00 | 0.00 | 0.00 | 90 | 1006.2 |
| 20260901233700 | 27 | 78 | 4.8 | 11.3 | 0.00 | 0.00 | 0.00 | 90 | 1006.2 |
| 20260901233501 | 27 | 163 | 4.8 | 12.9 | 0.00 | 0.00 | 0.00 | 90 | 1006.2 |
| 20260901233403 | 27 | 96 | 4.8 | 12.9 | 0.00 | 0.00 | 0.00 | 90 | 1006.2 |
| 20260901233304 | 27 | 41 | 4.8 | 12.9 | 0.00 | 0.00 | 0.00 | 90 | 1006.3 |
| 20260901233205 | 27 | 105 | 6.4 | 12.9 | 0.00 | 0.00 | 0.00 | 90 | 1006.3 |
| 20260901233100 | 27 | 92 | 6.4 | 12.9 | 0.00 | 0.00 | 0.00 | 90 | 1006.3 |
| 20260901233008 | 27 | 107 | 6.4 | 12.9 | 0.00 | 0.00 | 0.00 | 90 | 1006.3 |
| 20260901232903 | 27 | 47 | 4.8 | 12.9 | 0.00 | 0.00 | 0.00 | 90 | 1006.3 |
| 20260901232801 | 27 | 92 | 4.8 | 11.3 | 0.00 | 0.00 | 0.00 | 90 | 1006.4 |
| 20260901232658 | 27 | 82 | 3.2 | 11.3 | 0.00 | 0.00 | 0.00 | 90 | 1006.4 |
| 20260901232601 | 27 | 78 | 3.2 | 9.7 | 0.00 | 0.00 | 0.00 | 90 | 1006.4 |
| 20260901232400 | 27 | 109 | 3.2 | 12.9 | 0.00 | 0.00 | 0.00 | 90 | 1006.3 |
| 20260901181600 | 28 | 65 | 4.8 | 8.0 | 0.00 | 0.00 | 0.00 | 88 | 1007.1 |
| 20260901181501 | 28 | 48 | 4.8 | 8.0 | 0.00 | 0.00 | 0.00 | 88 | 1007.1 |
| 20260901181359 | 28 | 48 | 4.8 | 8.0 | 0.00 | 0.00 | 0.00 | 88 | 1007.1 |
| 20260901181301 | 28 | 48 | 4.8 | 8.0 | 0.00 | 0.00 | 0.00 | 88 | 1007.1 |
| 20260901181208 | 28 | 48 | 4.8 | 8.0 | 0.00 | 0.00 | 0.00 | 88 | 1007.1 |
| 20260901160258 | 28 | 60 | 4.8 | 11.3 | 0.00 | 0.00 | 0.00 | 83 | 1007.0 |
| 20260901160200 | 28 | 36 | 6.4 | 11.3 | 0.00 | 0.00 | 0.00 | 83 | 1007.0 |
| 20260901160010 | 28 | 39 | 8.0 | 11.3 | 0.00 | 0.00 | 0.00 | 83 | 1007.0 |
| 20260901155909 | 28 | 39 | 8.0 | 11.3 | 0.00 | 0.00 | 0.00 | 83 | 1007.0 |